Location: Bathurst
(33.4193°S, 149.5775°E)
Time: 22:13:21
(UTC+10:00)

Vanguard 3 - Pass Details

Date: 23 June 2021
Orbit: 508 x 3261 km, 33.4° (Epoch: 25 July)

Event Time Altitude Azimuth Distance (km) Brightness Sun altitude
Rises 21:42:15 0° 258° (WSW) 7,191 12.5 -57.5°
Reaches altitude 10° 21:47:05 10° 259° (WSW) 6,212 12.0 -58.4°
Enters shadow 22:00:32 51° 269° (W) 3,593 10.2 -61.2°
